Wind_Speed
39 41 43 44 46 47 49 50 52 53 54 54 54 54 54 53 54 54 54 55 55 55 56 57 58 59 60 61 62 63 64 65 65 65 66 67 66 66 65 65 65 63 62
41 43 45 47 48 50 51 53 54 55 56 56 56 56 56 56 56 56 57 57 57 57 57 58 58 58 59 59 60 61 61 62 62 61 61 62 62 62 61 61 59 58 56
45 46 48 49 51 53 54 55 55 56 57 58 57 57 57 57 57 57 57 57 57 57 57 57 57 57 57 57 58 58 59 59 59 58 58 57 57 57 56 54 53 51 50
48 50 52 53 54 54 55 56 56 56 56 57 57 57 57 57 58 58 57 57 56 56 55 55 55 55 55 55 55 55 56 55 55 55 53 52 51 50 48 47 45 44 43
51 52 54 54 54 54 55 55 54 55 55 55 56 57 57 57 57 57 56 55 54 54 54 54 53 53 53 53 53 52 53 52 51 49 47 45 44 43 42 40 39 38 38
49 49 50 51 52 52 52 52 52 53 54 55 55 55 55 55 55 54 54 53 53 52 51 51 51 51 50 50 49 49 48 47 44 42 40 38 37 36 35 35 35 35 33
46 45 45 46 48 49 50 50 51 52 53 53 53 53 53 52 52 52 51 51 50 49 49 49 48 48 46 46 45 44 42 40 37 35 33 32 31 31 31 31 31 31 30
43 44 45 46 46 47 48 49 49 50 50 50 51 50 50 49 49 49 48 47 47 46 46 45 44 43 42 40 38 36 34 32 29 28 27 27 27 28 28 28 28 27 27
43 44 46 46 47 47 48 48 48 49 49 48 48 48 47 47 46 46 45 44 43 43 42 41 39 37 35 33 31 28 26 24 23 23 23 24 25 25 26 26 26 26 25
43 44 45 46 46 47 47 47 47 47 47 46 46 45 44 43 43 42 41 40 40 39 37 35 32 29 27 25 22 20 19 19 19 20 22 23 23 23 24 25 25 25 24
42 43 44 44 45 45 45 45 45 44 44 43 42 41 40 39 38 37 37 36 34 32 29 26 23 20 19 17 15 15 14 15 17 18 19 20 21 23 23 24 25 24 23
41 42 42 43 43 43 42 42 41 40 39 38 37 36 35 34 33 32 31 29 26 23 19 17 14 13 11 11 11 11 12 14 15 16 18 19 20 22 23 23 23 23 22
40 40 41 41 40 40 39 38 37 36 34 33 32 31 30 28 27 25 23 20 17 14 12 10 8 7 7 7 8 9 11 13 14 15 17 19 20 21 22 22 22 21 20
38 38 38 38 37 36 34 33 31 29 28 27 25 24 23 21 19 17 14 12 9 7 5 4 3 4 5 5 7 9 10 12 14 16 17 19 19 20 21 21 21 21 21
36 36 35 34 32 30 27 25 23 21 20 19 17 16 15 13 11 9 6 4 3 1 1 2 4 5 6 7 9 10 12 13 15 16 18 19 20 20 21 21 21 21 21
33 31 29 27 25 22 20 18 16 15 14 13 12 10 8 6 4 2 2 2 3 4 5 5 7 8 8 9 10 12 13 14 15 16 17 18 19 20 21 21 21 21 21
29 26 23 19 17 16 14 12 11 11 10 9 8 7 5 4 4 4 5 6 6 7 7 8 9 10 11 12 12 13 14 15 15 16 17 18 19 20 20 21 21 21 21
24 20 17 14 12 11 10 9 8 7 7 7 7 6 6 6 7 7 8 8 8 9 10 11 12 12 13 14 14 15 15 16 16 17 17 18 18 19 20 21 21 21 22
20 16 14 12 11 9 8 8 7 7 7 6 7 7 8 9 9 9 9 10 11 11 12 13 13 14 14 15 15 15 16 16 17 18 18 19 19 19 19 20 20 21 21
18 16 14 13 11 10 9 8 8 8 9 9 9 10 11 11 11 11 11 12 12 13 13 14 14 14 14 15 15 16 16 17 18 18 19 19 20 20 20 20 20 20 20
18 17 16 14 13 12 11 11 10 10 11 12 12 12 12 12 12 13 13 13 13 14 14 14 13 13 14 14 15 15 16 17 18 19 19 20 20 20 20 20 20 20 20
17 17 16 15 14 13 12 12 12 12 13 13 13 13 13 13 13 13 13 14 14 13 13 13 13 13 13 13 14 15 15 16 17 18 19 20 20 21 21 20 20 20 20
15 15 14 14 13 13 13 12 13 13 13 13 14 13 13 13 13 13 13 13 13 13 12 12 12 12 12 13 13 14 15 15 17 18 19 20 20 21 21 21 20 20 20
14 13 12 12 12 12 12 12 12 12 13 13 13 13 13 13 12 12 12 12 11 11 11 11 11 11 11 12 13 14 14 15 16 18 19 19 20 21 22 21 21 21 20
13 12 11 10 10 10 10 11 11 12 12 12 12 12 12 12 11 11 11 10 10 10 10 10 10 10 11 12 13 13 14 15 17 18 19 19 20 21 22 22 22 21 21
13 11 10 10 9 9 9 9 10 10 11 11 11 11 11 11 11 10 10 10 9 9 9 9 9 10 10 12 12 13 14 16 17 18 19 20 21 22 23 23 23 23 23
Wind_Direction
269 271 272 274 276 278 280 281 283 284 285 286 286 287 289 289 290 291 292 291 291 290 290 289 289 288 288 288 287 287 288 288 288 288 288 288 289 289 289 289 289 289 288
269 271 273 274 275 277 278 280 281 282 283 284 285 287 289 289 290 291 291 292 292 292 291 291 290 290 290 289 289 289 289 290 290 290 290 290 290 290 290 290 290 290 289
271 272 273 274 275 276 277 278 280 281 282 283 285 287 288 289 290 290 291 292 292 292 292 292 292 292 292 291 291 291 291 291 291 291 291 291 291 291 291 291 292 291 291
272 272 273 274 275 277 278 278 280 281 283 285 286 287 289 290 290 291 292 292 293 293 293 293 293 293 293 293 292 292 292 292 293 293 293 293 293 293 293 294 294 294 294
273 273 274 275 275 277 278 279 280 282 284 286 287 288 290 291 291 292 292 293 293 293 293 293 293 294 294 293 293 293 293 294 294 295 295 295 295 296 297 298 299 299 298
272 274 275 276 277 278 279 281 283 285 287 288 289 290 290 291 291 292 292 293 293 294 294 294 294 294 294 294 294 295 296 296 297 297 297 298 299 301 303 304 304 303 301
275 276 278 280 281 282 285 287 287 288 289 289 289 290 291 291 292 293 294 294 294 294 294 294 295 295 295 295 296 297 298 298 299 300 301 302 305 306 308 309 310 310 309
285 288 289 291 291 292 292 291 290 290 290 290 291 291 292 292 293 293 294 294 295 295 295 296 296 296 296 297 298 299 300 301 303 306 308 310 312 314 316 317 318 317 314
294 294 294 294 294 293 293 292 292 292 292 291 292 292 292 293 293 294 294 295 295 296 296 297 297 297 298 298 299 301 303 306 309 312 315 318 320 322 323 324 324 323 320
296 296 295 295 295 295 294 294 294 293 293 293 293 293 293 294 294 295 295 296 296 297 297 297 297 297 298 300 302 304 307 311 315 319 322 325 328 330 330 331 331 330 328
298 298 298 297 297 296 296 296 296 296 295 295 294 294 295 295 295 295 296 297 298 298 298 298 298 298 300 303 306 311 315 321 324 327 329 332 335 337 338 338 338 337 336
301 301 300 300 299 298 297 297 297 296 296 295 295 295 295 295 295 296 297 298 298 298 298 299 300 301 304 310 316 322 329 334 337 339 341 343 344 344 345 345 345 346 347
305 304 304 303 302 301 299 298 298 297 296 296 296 295 295 296 296 296 297 297 297 298 300 303 306 311 318 327 335 342 346 349 352 354 355 355 354 353 354 355 356 358 359
309 308 307 306 305 304 302 301 300 299 298 297 297 297 296 297 297 297 296 296 298 301 304 314 330 344 358 6 8 8 8 10 10 7 6 5 5 5 5 7 9 9 10
313 311 309 308 307 306 305 304 303 303 303 303 303 303 303 302 301 301 300 302 308 335 49 55 47 46 44 38 33 29 27 24 19 16 15 14 14 14 15 16 16 16 17
318 317 315 313 311 311 310 309 308 310 312 314 317 319 321 324 330 349 39 81 92 92 86 78 71 67 61 54 48 41 35 30 26 23 22 20 19 20 21 21 21 22 23
326 325 324 322 321 322 323 323 322 324 329 335 341 351 6 26 52 74 88 94 96 92 87 85 81 75 68 61 54 47 41 36 32 28 26 25 24 24 24 24 24 25 26
338 338 338 338 335 336 341 344 347 350 355 1 10 24 43 62 75 84 91 95 97 93 91 90 85 78 71 64 59 53 48 42 37 33 31 28 27 26 26 26 26 27 28
352 355 358 0 3 7 6 8 16 26 30 33 42 54 66 76 83 87 93 97 98 96 95 91 85 79 73 68 62 57 52 47 42 38 36 33 31 29 27 27 27 28 29
8 13 17 20 24 27 30 35 41 46 49 55 62 70 78 82 84 88 94 97 97 96 94 91 86 80 74 69 64 59 54 48 43 39 36 33 31 30 28 28 28 29 31
21 26 29 32 36 39 43 48 53 57 61 66 71 75 78 81 85 89 93 95 96 95 93 90 85 78 73 69 64 59 53 48 43 38 34 32 30 28 27 27 28 29 31
25 30 34 39 43 46 51 56 61 65 68 70 72 74 77 82 86 90 92 94 95 93 91 88 83 77 71 65 61 55 49 45 41 37 33 31 29 28 27 27 28 30 32
25 30 33 38 44 49 55 61 66 68 69 69 70 73 77 82 86 89 91 93 92 91 89 87 82 75 68 62 56 50 45 41 39 37 33 30 28 28 28 29 31 33 34
23 27 30 36 44 51 57 63 66 67 68 69 69 71 75 80 84 87 89 90 90 89 87 83 78 72 64 56 50 46 42 39 37 37 34 30 29 31 31 31 33 34 35
22 26 30 36 44 52 58 63 66 67 68 69 70 72 74 77 81 84 87 87 87 86 84 79 74 68 60 53 47 43 39 37 37 38 37 35 35 37 37 37 38 39 40
24 27 32 38 45 54 62 65 66 67 68 70 71 71 73 76 78 81 84 85 85 84 80 75 69 63 57 52 48 43 41 40 41 42 43 42 42 42 42 43 43 43 44
Height
5793 5792 5791 5789 5787 5784 5782 5779 5777 5774 5771 5769 5766 5762 5759 5756 5752 5749 5745 5741 5737 5733 5728 5724 5719 5714 5709 5703 5697 5692 5686 5680 5677 5672 5664 5657 5651 5645 5639 5632 5627 5621 5617
5783 5782 5780 5778 5776 5773 5771 5768 5765 5762 5759 5756 5752 5749 5746 5742 5739 5735 5731 5727 5722 5718 5713 5708 5704 5699 5693 5687 5682 5676 5670 5664 5659 5655 5649 5642 5635 5628 5623 5617 5611 5605 5600
5772 5770 5768 5766 5763 5761 5758 5755 5752 5749 5746 5742 5739 5736 5732 5728 5725 5720 5716 5712 5707 5703 5698 5693 5689 5684 5678 5672 5667 5661 5655 5649 5643 5638 5633 5626 5620 5613 5607 5602 5596 5590 5585
5760 5758 5755 5753 5750 5748 5745 5742 5738 5735 5732 5729 5726 5722 5718 5714 5710 5705 5701 5697 5693 5688 5683 5679 5674 5669 5664 5658 5652 5646 5640 5635 5629 5623 5618 5612 5606 5599 5594 5588 5584 5578 5573
5747 5745 5742 5739 5736 5734 5731 5728 5724 5721 5718 5715 5711 5707 5703 5699 5695 5691 5687 5683 5678 5674 5669 5664 5659 5655 5649 5644 5638 5632 5627 5621 5615 5610 5604 5599 5594 5588 5582 5577 5572 5567 5562
5733 5731 5728 5725 5723 5720 5717 5714 5711 5707 5704 5701 5697 5693 5689 5685 5681 5677 5673 5669 5664 5660 5655 5651 5646 5641 5637 5630 5625 5619 5614 5608 5603 5598 5593 5588 5583 5578 5573 5567 5562 5557 5553
5720 5717 5715 5712 5709 5706 5703 5700 5697 5693 5690 5686 5683 5679 5675 5670 5667 5663 5659 5655 5651 5647 5642 5637 5632 5628 5624 5618 5613 5608 5602 5597 5593 5589 5584 5580 5575 5571 5566 5560 5554 5548 5543
5709 5706 5703 5700 5696 5693 5690 5687 5683 5679 5676 5672 5668 5665 5661 5657 5653 5649 5646 5642 5638 5634 5629 5625 5620 5616 5611 5607 5602 5598 5593 5589 5585 5581 5578 5573 5569 5564 5558 5553 5547 5542 5537
5697 5694 5691 5687 5684 5680 5676 5673 5669 5665 5661 5658 5654 5651 5648 5644 5640 5636 5633 5629 5626 5622 5617 5614 5610 5605 5601 5597 5594 5590 5587 5583 5580 5576 5573 5568 5563 5558 5553 5548 5542 5537 5532
5687 5683 5679 5675 5671 5666 5663 5659 5655 5651 5647 5644 5641 5637 5634 5631 5627 5624 5621 5617 5614 5610 5607 5603 5600 5597 5594 5590 5588 5585 5583 5580 5576 5573 5569 5564 5560 5554 5549 5544 5538 5532 5527
5675 5671 5666 5662 5658 5654 5649 5645 5642 5638 5634 5631 5628 5625 5621 5619 5616 5612 5610 5607 5604 5601 5598 5595 5593 5591 5588 5586 5584 5582 5580 5577 5574 5570 5566 5562 5557 5552 5546 5540 5534 5528 5523
5664 5659 5655 5650 5646 5642 5637 5633 5629 5626 5623 5619 5617 5614 5611 5608 5606 5603 5600 5598 5596 5594 5592 5590 5588 5587 5585 5584 5582 5580 5578 5575 5572 5568 5564 5559 5555 5550 5544 5538 5532 5526 5520
5654 5649 5644 5639 5634 5630 5626 5622 5618 5615 5612 5610 5607 5604 5602 5599 5597 5595 5593 5592 5590 5589 5588 5587 5586 5585 5584 5583 5581 5579 5577 5574 5570 5567 5563 5558 5553 5548 5543 5537 5531 5526 5520
5644 5638 5633 5628 5623 5619 5615 5612 5609 5606 5603 5601 5599 5597 5594 5593 5591 5590 5589 5588 5587 5586 5586 5585 5585 5584 5583 5582 5581 5579 5576 5573 5570 5566 5562 5558 5553 5548 5543 5538 5532 5527 5521
5635 5629 5624 5619 5614 5610 5607 5603 5601 5599 5597 5595 5593 5591 5589 5588 5587 5586 5585 5585 5585 5585 5585 5585 5585 5584 5584 5582 5581 5579 5576 5574 5570 5567 5563 5559 5554 5550 5544 5539 5534 5529 5524
5628 5622 5616 5612 5608 5604 5602 5599 5596 5595 5593 5591 5590 5588 5587 5586 5585 5585 5585 5585 5585 5586 5586 5586 5586 5585 5584 5583 5582 5580 5578 5575 5572 5569 5565 5561 5556 5552 5547 5542 5537 5532 5527
5622 5616 5611 5607 5603 5601 5599 5597 5595 5593 5591 5590 5589 5588 5587 5586 5586 5586 5586 5586 5587 5587 5588 5588 5587 5587 5586 5585 5583 5581 5579 5577 5574 5571 5567 5563 5559 5554 5550 5545 5540 5535 5530
5618 5613 5608 5605 5602 5600 5597 5596 5594 5593 5592 5590 5589 5588 5588 5587 5587 5587 5588 5588 5589 5589 5590 5590 5590 5589 5589 5587 5586 5584 5582 5579 5576 5573 5570 5566 5562 5557 5553 5548 5544 5539 5534
5617 5612 5608 5605 5602 5600 5598 5597 5595 5594 5593 5592 5591 5590 5590 5590 5590 5590 5590 5591 5591 5592 5592 5593 5593 5592 5592 5590 5589 5587 5585 5582 5579 5576 5573 5569 5565 5561 5556 5552 5547 5543 5538
5618 5613 5610 5607 5604 5602 5600 5599 5598 5596 5595 5594 5594 5593 5593 5593 5593 5593 5593 5594 5595 5595 5596 5596 5596 5596 5595 5594 5592 5590 5588 5586 5583 5580 5576 5572 5568 5564 5560 5555 5551 5547 5542
5621 5616 5613 5610 5607 5605 5604 5602 5601 5600 5599 5598 5597 5597 5597 5597 5597 5597 5597 5598 5598 5599 5599 5600 5599 5599 5598 5597 5596 5594 5592 5589 5586 5583 5580 5576 5572 5568 5564 5559 5555 5551 5547
5624 5620 5617 5614 5612 5609 5608 5606 5605 5604 5603 5602 5602 5601 5601 5601 5601 5601 5601 5602 5602 5603 5603 5603 5603 5603 5602 5601 5599 5597 5595 5592 5590 5586 5583 5579 5575 5571 5567 5563 5559 5555 5551
5627 5624 5621 5618 5616 5614 5612 5611 5610 5609 5608 5607 5606 5606 5605 5605 5605 5605 5606 5606 5606 5607 5607 5607 5607 5606 5605 5604 5602 5600 5598 5596 5593 5589 5586 5583 5579 5575 5571 5567 5563 5559 5555
5629 5627 5624 5622 5620 5618 5616 5615 5614 5613 5612 5612 5611 5610 5610 5609 5609 5610 5610 5610 5610 5610 5610 5610 5610 5609 5608 5607 5605 5603 5601 5599 5596 5593 5590 5587 5583 5579 5575 5571 5567 5563 5559
5631 5628 5626 5624 5622 5621 5620 5619 5618 5617 5617 5616 5615 5615 5614 5614 5614 5614 5614 5614 5614 5614 5614 5613 5613 5612 5611 5610 5608 5607 5604 5602 5599 5596 5593 5590 5587 5583 5579 5575 5572 5568 5564
5632 5630 5628 5626 5625 5623 5623 5622 5622 5621 5620 5620 5619 5619 5618 5618 5618 5617 5617 5617 5617 5617 5617 5617 5616 5615 5614 5613 5611 5610 5608 5605 5603 5600 5597 5594 5591 5588 5584 5580 5577 5573 5569